Time,TemperatureF,DewpointF,PressureIn,WindDirection,WindDirectionDegrees,WindSpeedMPH,WindSpeedGustMPH,Humidity,HourlyPrecipIn,Conditions,Clouds,dailyrainin,SoftwareType,DateUTC
2013-06-17 00:04:00,66.6,54.5,29.92,NNW,332,0.0,0.0,65,-99.99,,,0.00,1-wire,2013-06-17 05:04:00,
2013-06-17 00:09:00,66.8,54.7,29.92,NNW,331,0.0,0.0,65,-99.99,,,0.00,1-wire,2013-06-17 05:09:00,
2013-06-17 00:15:00,66.8,54.5,29.92,NNW,331,0.0,0.0,65,-99.99,,,0.00,1-wire,2013-06-17 05:15:00,
2013-06-17 00:21:00,66.6,54.3,29.93,NNW,330,0.0,0.0,65,-99.99,,,0.00,1-wire,2013-06-17 05:21:00,
2013-06-17 00:27:00,66.6,54.3,29.92,NNW,330,0.0,0.0,65,-99.99,,,0.00,1-wire,2013-06-17 05:27:00,
2013-06-17 00:33:00,66.8,54.0,29.93,NNW,330,0.0,0.0,64,-99.99,,,0.00,1-wire,2013-06-17 05:33:00,
2013-06-17 00:39:00,66.9,54.0,29.93,NNW,331,0.0,0.0,63,-99.99,,,0.00,1-wire,2013-06-17 05:39:00,
2013-06-17 00:44:00,66.9,53.8,29.93,NNW,331,0.0,0.0,63,-99.99,,,0.00,1-wire,2013-06-17 05:44:00,
2013-06-17 00:49:00,66.9,53.8,29.92,NNW,331,0.0,0.0,63,-99.99,,,0.00,1-wire,2013-06-17 05:49:00,
2013-06-17 00:54:00,66.7,53.8,29.92,NNW,330,0.0,0.0,63,-99.99,,,0.00,1-wire,2013-06-17 05:54:00,
2013-06-17 00:59:00,67.0,53.8,29.92,NNW,330,0.0,0.0,63,-99.99,,,0.00,1-wire,2013-06-17 05:59:00,
2013-06-17 01:05:00,67.0,53.7,29.92,NNW,330,0.0,0.0,63,-99.99,,,0.00,1-wire,2013-06-17 06:05:00,
2013-06-17 01:10:00,67.2,53.7,29.92,NNW,331,0.0,0.0,62,-99.99,,,0.00,1-wire,2013-06-17 06:10:00,
2013-06-17 01:15:00,67.4,53.6,29.92,NNW,331,0.0,0.0,61,-99.99,,,0.00,1-wire,2013-06-17 06:15:00,
2013-06-17 01:20:00,67.4,53.7,29.91,NNW,331,0.0,0.0,61,-99.99,,,0.00,1-wire,2013-06-17 06:20:00,
2013-06-17 01:25:00,67.6,53.6,29.92,West,269,0.0,0.0,61,-99.99,,,0.00,1-wire,2013-06-17 06:25:00,
2013-06-17 01:30:00,67.4,53.8,29.92,West,269,0.0,0.0,62,-99.99,,,0.00,1-wire,2013-06-17 06:30:00,
2013-06-17 01:35:00,67.7,53.6,29.91,West,269,0.0,0.0,61,-99.99,,,0.00,1-wire,2013-06-17 06:35:00,
2013-06-17 01:40:00,67.8,53.7,29.90,West,269,0.0,0.0,61,-99.99,,,0.00,1-wire,2013-06-17 06:40:00,
2013-06-17 01:45:00,67.7,53.5,29.90,West,269,0.0,0.0,60,-99.99,,,0.00,1-wire,2013-06-17 06:45:00,
2013-06-17 01:50:00,67.8,53.4,29.90,West,269,0.0,0.0,60,-99.99,,,0.00,1-wire,2013-06-17 06:50:00,
2013-06-17 01:55:00,67.6,53.5,29.90,West,266,0.0,0.0,61,-99.99,,,0.00,1-wire,2013-06-17 06:55:00,
2013-06-17 02:00:00,67.3,53.5,29.90,West,266,0.0,0.0,61,-99.99,,,0.00,1-wire,2013-06-17 07:00:00,
2013-06-17 02:05:00,67.6,54.1,29.90,West,266,0.0,0.0,62,-99.99,,,0.00,1-wire,2013-06-17 07:05:00,
2013-06-17 02:10:00,67.2,54.0,29.91,West,270,0.0,0.0,63,-99.99,,,0.00,1-wire,2013-06-17 07:10:00,
2013-06-17 02:15:00,67.0,53.4,29.91,West,270,0.0,0.0,62,-99.99,,,0.00,1-wire,2013-06-17 07:15:00,
2013-06-17 02:20:00,66.9,52.9,29.92,West,270,0.0,0.0,61,-99.99,,,0.00,1-wire,2013-06-17 07:20:00,
2013-06-17 02:25:00,67.1,53.1,29.92,NNW,331,0.0,3.0,61,-99.99,,,0.00,1-wire,2013-06-17 07:25:00,
2013-06-17 02:30:00,67.3,52.9,29.92,NNW,331,0.0,0.0,60,-99.99,,,0.00,1-wire,2013-06-17 07:30:00,
2013-06-17 02:36:00,67.5,53.0,29.91,NNW,331,0.0,0.0,60,-99.99,,,0.00,1-wire,2013-06-17 07:36:00,
2013-06-17 02:41:00,67.6,53.5,29.91,NNW,331,0.0,0.0,61,-99.99,,,0.00,1-wire,2013-06-17 07:41:00,
2013-06-17 02:46:00,67.7,53.5,29.90,NNW,331,0.0,0.0,60,-99.99,,,0.00,1-wire,2013-06-17 07:46:00,
2013-06-17 02:51:00,67.9,53.1,29.91,NNW,330,0.0,0.0,59,-99.99,,,0.00,1-wire,2013-06-17 07:51:00,
2013-06-17 02:56:00,68.0,53.0,29.91,NNW,330,0.0,0.0,59,-99.99,,,0.00,1-wire,2013-06-17 07:56:00,
2013-06-17 03:01:00,68.2,53.7,29.90,NNW,330,0.0,0.0,60,-99.99,,,0.00,1-wire,2013-06-17 08:01:00,
2013-06-17 03:06:00,68.2,54.0,29.90,West,273,0.0,0.0,60,-99.99,,,0.00,1-wire,2013-06-17 08:06:00,
2013-06-17 03:11:00,68.2,53.9,29.90,West,273,0.0,0.0,60,-99.99,,,0.00,1-wire,2013-06-17 08:11:00,
2013-06-17 03:16:00,68.4,53.5,29.90,West,273,2.0,3.0,59,-99.99,,,0.00,1-wire,2013-06-17 08:16:00,
2013-06-17 03:21:00,68.4,53.6,29.90,WSW,241,0.0,0.0,59,-99.99,,,0.00,1-wire,2013-06-17 08:21:00,
2013-06-17 03:27:00,68.3,53.1,29.90,WSW,241,0.0,3.0,58,-99.99,,,0.00,1-wire,2013-06-17 08:27:00,
2013-06-17 03:32:00,68.6,53.2,29.90,WSW,241,0.0,0.0,58,-99.99,,,0.00,1-wire,2013-06-17 08:32:00,
2013-06-17 03:37:00,68.8,53.2,29.91,WSW,239,0.0,0.0,58,-99.99,,,0.00,1-wire,2013-06-17 08:37:00,
2013-06-17 03:42:00,68.8,53.1,29.91,WSW,239,0.0,0.0,57,-99.99,,,0.00,1-wire,2013-06-17 08:42:00,
2013-06-17 03:47:00,69.1,53.8,29.90,WSW,239,0.0,0.0,58,-99.99,,,0.00,1-wire,2013-06-17 08:47:00,
2013-06-17 03:53:00,68.9,53.9,29.90,West,265,0.0,0.0,59,-99.99,,,0.00,1-wire,2013-06-17 08:53:00,
2013-06-17 03:59:00,68.0,54.2,29.90,West,265,0.0,0.0,61,-99.99,,,0.00,1-wire,2013-06-17 08:59:00,
2013-06-17 04:05:00,67.8,54.8,29.90,West,265,0.0,0.0,63,-99.99,,,0.00,1-wire,2013-06-17 09:05:00,
2013-06-17 04:10:00,67.0,53.1,29.90,West,263,0.0,0.0,61,-99.99,,,0.00,1-wire,2013-06-17 09:10:00,
2013-06-17 04:15:00,66.4,53.0,29.90,West,263,0.0,0.0,62,-99.99,,,0.00,1-wire,2013-06-17 09:15:00,
2013-06-17 04:20:00,66.5,53.5,29.90,West,263,0.0,0.0,63,-99.99,,,0.00,1-wire,2013-06-17 09:20:00,
2013-06-17 04:25:00,66.2,52.9,29.90,WSW,241,0.0,0.0,62,-99.99,,,0.00,1-wire,2013-06-17 09:25:00,
2013-06-17 04:31:00,65.6,53.5,29.90,WSW,241,0.0,0.0,65,-99.99,,,0.00,1-wire,2013-06-17 09:31:00,
2013-06-17 04:36:00,65.4,53.1,29.90,WSW,244,0.0,0.0,65,-99.99,,,0.00,1-wire,2013-06-17 09:36:00,
2013-06-17 04:41:00,65.5,53.6,29.89,WSW,244,0.0,0.0,65,-99.99,,,0.00,1-wire,2013-06-17 09:41:00,
2013-06-17 04:46:00,65.6,53.8,29.89,WSW,244,0.0,0.0,66,-99.99,,,0.00,1-wire,2013-06-17 09:46:00,
2013-06-17 04:51:00,65.4,53.2,29.89,West,264,0.0,0.0,65,-99.99,,,0.00,1-wire,2013-06-17 09:51:00,
2013-06-17 04:56:00,65.0,53.2,29.89,West,264,0.0,0.0,66,-99.99,,,0.00,1-wire,2013-06-17 09:56:00,
2013-06-17 05:01:00,65.0,53.0,29.90,West,264,0.0,0.0,65,-99.99,,,0.00,1-wire,2013-06-17 10:01:00,
2013-06-17 05:06:00,64.6,52.6,29.90,West,281,0.0,0.0,65,-99.99,,,0.00,1-wire,2013-06-17 10:06:00,
2013-06-17 05:11:00,64.7,52.7,29.90,West,281,0.0,0.0,65,-99.99,,,0.00,1-wire,2013-06-17 10:11:00,
2013-06-17 05:16:00,64.6,52.4,29.90,West,281,0.0,0.0,65,-99.99,,,0.00,1-wire,2013-06-17 10:16:00,
2013-06-17 05:21:00,64.7,52.4,29.89,West,269,0.0,0.0,64,-99.99,,,0.00,1-wire,2013-06-17 10:21:00,
2013-06-17 05:26:00,64.8,52.2,29.89,West,269,0.0,0.0,64,-99.99,,,0.00,1-wire,2013-06-17 10:26:00,
2013-06-17 05:31:00,65.1,52.4,29.89,West,269,0.0,0.0,63,-99.99,,,0.00,1-wire,2013-06-17 10:31:00,
2013-06-17 05:36:00,65.1,52.0,29.89,West,275,0.0,3.0,63,-99.99,,,0.00,1-wire,2013-06-17 10:36:00,
2013-06-17 05:41:00,65.5,52.1,29.89,West,275,0.0,0.0,62,-99.99,,,0.00,1-wire,2013-06-17 10:41:00,
2013-06-17 05:46:00,65.5,51.8,29.89,West,275,0.0,0.0,61,-99.99,,,0.00,1-wire,2013-06-17 10:46:00,
2013-06-17 05:51:00,65.7,52.1,29.89,West,272,0.0,0.0,61,-99.99,,,0.00,1-wire,2013-06-17 10:51:00,
2013-06-17 05:56:00,66.0,52.2,29.89,West,272,0.0,3.0,61,-99.99,,,0.00,1-wire,2013-06-17 10:56:00,
2013-06-17 06:01:00,65.9,52.3,29.89,West,272,1.0,3.0,62,-99.99,,,0.00,1-wire,2013-06-17 11:01:00,
2013-06-17 06:06:00,66.1,52.8,29.89,West,281,0.0,0.0,62,-99.99,,,0.00,1-wire,2013-06-17 11:06:00,
2013-06-17 06:11:00,66.0,52.1,29.89,West,281,0.0,0.0,61,-99.99,,,0.00,1-wire,2013-06-17 11:11:00,
2013-06-17 06:16:00,66.1,52.8,29.88,West,281,0.0,0.0,62,-99.99,,,0.00,1-wire,2013-06-17 11:16:00,
2013-06-17 06:21:00,66.3,52.4,29.89,NNW,347,0.0,0.0,61,-99.99,,,0.00,1-wire,2013-06-17 11:21:00,
2013-06-17 06:26:00,66.1,54.2,29.90,NNW,347,0.0,0.0,66,-99.99,,,0.00,1-wire,2013-06-17 11:26:00,
2013-06-17 06:31:00,66.2,54.6,29.90,NNW,347,0.0,0.0,66,-99.99,,,0.00,1-wire,2013-06-17 11:31:00,
2013-06-17 06:37:00,66.6,54.1,29.90,North,0,0.0,0.0,64,-99.99,,,0.00,1-wire,2013-06-17 11:37:00,
2013-06-17 06:43:00,66.7,54.0,29.90,North,0,0.0,3.0,64,-99.99,,,0.00,1-wire,2013-06-17 11:43:00,
2013-06-17 06:48:00,67.0,54.2,29.91,North,0,0.0,0.0,64,-99.99,,,0.00,1-wire,2013-06-17 11:48:00,
2013-06-17 06:53:00,67.0,54.3,29.91,North,353,0.0,0.0,64,-99.99,,,0.00,1-wire,2013-06-17 11:53:00,
2013-06-17 06:58:00,67.6,55.5,29.92,North,353,0.0,0.0,65,-99.99,,,0.00,1-wire,2013-06-17 11:58:00,
2013-06-17 07:04:00,67.4,56.3,29.92,North,353,0.0,0.0,68,-99.99,,,0.00,1-wire,2013-06-17 12:04:00,
2013-06-17 07:10:00,67.5,55.7,29.92,NNW,337,0.0,0.0,66,-99.99,,,0.00,1-wire,2013-06-17 12:10:00,
2013-06-17 07:15:00,67.6,55.2,29.92,NNW,337,0.0,0.0,65,-99.99,,,0.00,1-wire,2013-06-17 12:15:00,
2013-06-17 07:21:00,67.9,54.7,29.92,NNW,336,0.0,3.0,63,-99.99,,,0.00,1-wire,2013-06-17 12:21:00,
2013-06-17 07:27:00,68.2,54.9,29.92,NNW,336,0.0,0.0,62,-99.99,,,0.00,1-wire,2013-06-17 12:27:00,
2013-06-17 07:32:00,69.0,55.0,29.92,NNW,336,0.0,0.0,61,-99.99,,,0.00,1-wire,2013-06-17 12:32:00,
2013-06-17 07:37:00,69.3,54.7,29.92,NNW,333,2.0,6.0,60,-99.99,,,0.00,1-wire,2013-06-17 12:37:00,
2013-06-17 07:43:00,70.2,54.3,29.92,NNW,333,2.0,6.0,57,-99.99,,,0.00,1-wire,2013-06-17 12:43:00,
2013-06-17 07:49:00,70.7,54.6,29.93,NNW,333,1.0,6.0,57,-99.99,,,0.00,1-wire,2013-06-17 12:49:00,
2013-06-17 07:54:00,71.1,54.3,29.93,NNW,335,2.0,3.0,55,-99.99,,,0.00,1-wire,2013-06-17 12:54:00,
2013-06-17 07:59:00,71.4,55.1,29.93,NNW,335,0.0,0.0,56,-99.99,,,0.00,1-wire,2013-06-17 12:59:00,
2013-06-17 08:04:00,71.9,55.3,29.93,NNW,335,1.0,3.0,56,-99.99,,,0.00,1-wire,2013-06-17 13:04:00,
2013-06-17 08:10:00,72.2,55.4,29.93,West,270,1.0,3.0,55,-99.99,,,0.00,1-wire,2013-06-17 13:10:00,
2013-06-17 08:15:00,72.8,55.7,29.93,West,270,2.0,6.0,55,-99.99,,,0.00,1-wire,2013-06-17 13:15:00,
2013-06-17 08:20:00,73.3,56.0,29.93,West,270,0.0,3.0,55,-99.99,,,0.00,1-wire,2013-06-17 13:20:00,
2013-06-17 08:25:00,73.3,55.9,29.93,West,262,0.0,0.0,55,-99.99,,,0.00,1-wire,2013-06-17 13:25:00,
2013-06-17 08:30:00,73.9,57.9,29.93,West,262,1.0,3.0,57,-99.99,,,0.00,1-wire,2013-06-17 13:30:00,
2013-06-17 08:35:00,74.4,57.6,29.93,West,262,0.0,3.0,56,-99.99,,,0.00,1-wire,2013-06-17 13:35:00,
2013-06-17 08:40:00,74.7,58.1,29.93,West,265,0.0,0.0,56,-99.99,,,0.00,1-wire,2013-06-17 13:40:00,
2013-06-17 08:45:00,74.8,57.6,29.93,West,265,0.0,0.0,55,-99.99,,,0.00,1-wire,2013-06-17 13:45:00,
2013-06-17 08:50:00,75.4,56.5,29.92,West,265,0.0,3.0,52,-99.99,,,0.00,1-wire,2013-06-17 13:50:00,
2013-06-17 08:55:00,76.2,59.2,29.93,West,266,0.0,3.0,56,-99.99,,,0.00,1-wire,2013-06-17 13:55:00,
2013-06-17 09:10:00,77.2,57.3,29.93,West,279,2.0,6.0,50,-99.99,,,0.00,1-wire,2013-06-17 14:10:00,
2013-06-17 09:15:00,77.8,58.2,29.93,West,279,1.0,4.0,51,-99.99,,,0.00,1-wire,2013-06-17 14:15:00,
2013-06-17 09:20:00,78.3,57.2,29.93,West,279,3.0,6.0,48,-99.99,,,0.00,1-wire,2013-06-17 14:20:00,
2013-06-17 09:25:00,78.5,58.1,29.93,WSW,257,3.0,6.0,50,-99.99,,,0.00,1-wire,2013-06-17 14:25:00,
2013-06-17 09:30:00,78.7,58.5,29.93,WSW,257,1.0,6.0,50,-99.99,,,0.00,1-wire,2013-06-17 14:30:00,
2013-06-17 09:35:00,78.6,57.5,29.93,WSW,257,2.0,6.0,49,-99.99,,,0.00,1-wire,2013-06-17 14:35:00,
2013-06-17 09:40:00,78.7,59.2,29.93,West,268,1.0,3.0,51,-99.99,,,0.00,1-wire,2013-06-17 14:40:00,
2013-06-17 09:45:00,78.9,59.3,29.93,West,268,2.0,6.0,51,-99.99,,,0.00,1-wire,2013-06-17 14:45:00,
2013-06-17 09:50:00,79.1,58.3,29.93,West,268,3.0,6.0,49,-99.99,,,0.00,1-wire,2013-06-17 14:50:00,
2013-06-17 09:55:00,79.5,58.6,29.92,West,270,2.0,7.0,49,-99.99,,,0.00,1-wire,2013-06-17 14:55:00,
2013-06-17 10:00:00,79.5,58.2,29.92,West,270,1.0,6.0,48,-99.99,,,0.00,1-wire,2013-06-17 15:00:00,
2013-06-17 10:05:00,79.3,58.2,29.92,West,270,3.0,6.0,49,-99.99,,,0.00,1-wire,2013-06-17 15:05:00,
2013-06-17 10:11:00,79.8,58.3,29.92,WSW,253,1.0,3.0,48,-99.99,,,0.00,1-wire,2013-06-17 15:11:00,
2013-06-17 10:16:00,80.2,58.1,29.92,WSW,253,3.0,6.0,47,-99.99,,,0.00,1-wire,2013-06-17 15:16:00,
2013-06-17 10:21:00,81.1,60.0,29.92,WSW,256,3.0,6.0,49,-99.99,,,0.00,1-wire,2013-06-17 15:21:00,
2013-06-17 10:27:00,80.7,58.5,29.92,WSW,256,3.0,6.0,47,-99.99,,,0.00,1-wire,2013-06-17 15:27:00,
2013-06-17 10:32:00,81.2,60.8,29.92,WSW,256,2.0,3.0,50,-99.99,,,0.00,1-wire,2013-06-17 15:32:00,
2013-06-17 10:37:00,81.4,59.7,29.92,West,275,3.0,6.0,48,-99.99,,,0.00,1-wire,2013-06-17 15:37:00,
2013-06-17 10:43:00,81.6,58.2,29.92,West,275,2.0,6.0,45,-99.99,,,0.00,1-wire,2013-06-17 15:43:00,
2013-06-17 10:48:00,81.6,58.7,29.92,West,275,1.0,3.0,46,-99.99,,,0.00,1-wire,2013-06-17 15:48:00,
2013-06-17 10:53:00,82.3,57.6,29.92,West,259,1.0,6.0,43,-99.99,,,0.00,1-wire,2013-06-17 15:53:00,
2013-06-17 10:58:00,82.9,57.6,29.92,West,259,5.0,9.0,42,-99.99,,,0.00,1-wire,2013-06-17 15:58:00,
2013-06-17 11:03:00,82.9,58.5,29.92,West,259,4.0,6.0,44,-99.99,,,0.00,1-wire,2013-06-17 16:03:00,
2013-06-17 11:08:00,83.4,60.4,29.92,WNW,283,2.0,3.0,46,-99.99,,,0.00,1-wire,2013-06-17 16:08:00,
2013-06-17 11:14:00,83.5,59.8,29.92,WNW,283,0.0,3.0,45,-99.99,,,0.00,1-wire,2013-06-17 16:14:00,
2013-06-17 11:19:00,83.8,57.3,29.92,WNW,283,2.0,6.0,41,-99.99,,,0.00,1-wire,2013-06-17 16:19:00,
2013-06-17 11:25:00,84.9,60.0,29.92,WNW,303,2.0,6.0,43,-99.99,,,0.00,1-wire,2013-06-17 16:25:00,
2013-06-17 11:30:00,84.4,57.6,29.92,WNW,303,5.0,12.0,40,-99.99,,,0.00,1-wire,2013-06-17 16:30:00,
2013-06-17 11:35:00,84.2,58.3,29.91,WNW,303,1.0,6.0,42,-99.99,,,0.00,1-wire,2013-06-17 16:35:00,
2013-06-17 11:40:00,84.1,56.1,29.91,WNW,294,4.0,8.0,39,-99.99,,,0.00,1-wire,2013-06-17 16:40:00,
2013-06-17 11:46:00,84.6,56.3,29.91,WNW,294,6.0,11.0,38,-99.99,,,0.00,1-wire,2013-06-17 16:46:00,
2013-06-17 11:51:00,84.2,56.7,29.91,WNW,289,4.0,6.0,39,-99.99,,,0.00,1-wire,2013-06-17 16:51:00,
2013-06-17 11:56:00,84.2,58.1,29.91,WNW,289,2.0,7.0,41,-99.99,,,0.00,1-wire,2013-06-17 16:56:00,
2013-06-17 12:01:00,84.5,57.1,29.91,WNW,289,5.0,14.0,39,-99.99,,,0.00,1-wire,2013-06-17 17:01:00,
2013-06-17 12:07:00,84.6,57.9,29.91,WNW,300,6.0,9.0,40,-99.99,,,0.00,1-wire,2013-06-17 17:07:00,
2013-06-17 12:12:00,84.5,58.5,29.91,WNW,300,3.0,6.0,41,-99.99,,,0.00,1-wire,2013-06-17 17:12:00,
2013-06-17 12:17:00,84.5,58.1,29.91,WNW,300,5.0,9.0,41,-99.99,,,0.00,1-wire,2013-06-17 17:17:00,
2013-06-17 12:22:00,85.2,59.2,29.91,NW,313,4.0,8.0,42,-99.99,,,0.00,1-wire,2013-06-17 17:22:00,
2013-06-17 12:27:00,85.1,57.6,29.91,NW,313,4.0,9.0,39,-99.99,,,0.00,1-wire,2013-06-17 17:27:00,
2013-06-17 12:32:00,85.2,58.7,29.91,NW,313,4.0,9.0,41,-99.99,,,0.00,1-wire,2013-06-17 17:32:00,
2013-06-17 12:37:00,84.6,58.0,29.91,NW,308,5.0,11.0,41,-99.99,,,0.00,1-wire,2013-06-17 17:37:00,
2013-06-17 12:42:00,84.4,55.9,29.92,NW,308,4.0,9.0,38,-99.99,,,0.00,1-wire,2013-06-17 17:42:00,
2013-06-17 12:47:00,85.1,59.0,29.91,NW,308,2.0,6.0,41,-99.99,,,0.00,1-wire,2013-06-17 17:47:00,
2013-06-17 12:52:00,84.9,57.7,29.91,NW,305,4.0,8.0,40,-99.99,,,0.00,1-wire,2013-06-17 17:52:00,
2013-06-17 12:57:00,85.2,57.9,29.91,NW,305,2.0,6.0,40,-99.99,,,0.00,1-wire,2013-06-17 17:57:00,
2013-06-17 13:02:00,85.5,58.5,29.91,NW,305,4.0,8.0,40,-99.99,,,0.00,1-wire,2013-06-17 18:02:00,
2013-06-17 13:07:00,86.0,58.2,29.91,NW,321,3.0,6.0,39,-99.99,,,0.00,1-wire,2013-06-17 18:07:00,
2013-06-17 13:12:00,85.9,57.2,29.91,NW,321,2.0,3.0,38,-99.99,,,0.00,1-wire,2013-06-17 18:12:00,
2013-06-17 13:17:00,85.7,58.0,29.91,NW,321,0.0,3.0,39,-99.99,,,0.00,1-wire,2013-06-17 18:17:00,
2013-06-17 13:22:00,85.5,58.2,29.91,NNW,328,5.0,9.0,40,-99.99,,,0.00,1-wire,2013-06-17 18:22:00,
2013-06-17 13:27:00,85.5,57.3,29.91,NNW,328,3.0,6.0,39,-99.99,,,0.00,1-wire,2013-06-17 18:27:00,
2013-06-17 13:32:00,85.3,54.4,29.91,NNW,328,4.0,8.0,35,-99.99,,,0.00,1-wire,2013-06-17 18:32:00,
2013-06-17 13:37:00,85.7,56.1,29.92,NW,326,3.0,6.0,37,-99.99,,,0.00,1-wire,2013-06-17 18:37:00,
2013-06-17 13:42:00,85.4,58.7,29.91,NW,326,0.0,0.0,41,-99.99,,,0.00,1-wire,2013-06-17 18:42:00,
2013-06-17 13:47:00,84.4,57.4,29.91,NW,326,1.0,6.0,40,-99.99,,,0.00,1-wire,2013-06-17 18:47:00,
2013-06-17 13:52:00,85.0,58.4,29.91,NW,310,1.0,3.0,41,-99.99,,,0.00,1-wire,2013-06-17 18:52:00,
2013-06-17 13:57:00,85.1,56.4,29.91,NW,310,3.0,9.0,38,-99.99,,,0.00,1-wire,2013-06-17 18:57:00,
2013-06-17 14:02:00,86.0,57.2,29.90,NW,310,3.0,8.0,38,-99.99,,,0.00,1-wire,2013-06-17 19:02:00,
2013-06-17 14:07:00,86.2,55.5,29.90,NW,316,4.0,6.0,35,-99.99,,,0.00,1-wire,2013-06-17 19:07:00,
2013-06-17 14:12:00,86.5,58.8,29.90,NW,316,0.0,3.0,39,-99.99,,,0.00,1-wire,2013-06-17 19:12:00,
2013-06-17 14:17:00,86.2,56.1,29.90,NW,316,2.0,6.0,36,-99.99,,,0.00,1-wire,2013-06-17 19:17:00,
2013-06-17 14:22:00,86.7,56.6,29.90,WNW,302,1.0,3.0,36,-99.99,,,0.00,1-wire,2013-06-17 19:22:00,
2013-06-17 14:27:00,86.6,55.4,29.90,WNW,302,5.0,9.0,35,-99.99,,,0.00,1-wire,2013-06-17 19:27:00,
2013-06-17 14:32:00,86.8,55.8,29.90,WNW,302,3.0,8.0,35,-99.99,,,0.00,1-wire,2013-06-17 19:32:00,
2013-06-17 14:37:00,87.4,57.0,29.90,NW,306,2.0,5.0,36,-99.99,,,0.00,1-wire,2013-06-17 19:37:00,
2013-06-17 14:42:00,86.2,54.6,29.90,NW,306,5.0,8.0,34,-99.99,,,0.00,1-wire,2013-06-17 19:42:00,
2013-06-17 14:47:00,86.4,53.8,29.90,NW,306,4.0,9.0,33,-99.99,,,0.00,1-wire,2013-06-17 19:47:00,
2013-06-17 14:52:00,86.5,54.1,29.90,WNW,302,5.0,9.0,33,-99.99,,,0.00,1-wire,2013-06-17 19:52:00,
2013-06-17 14:57:00,86.4,55.4,29.90,WNW,302,2.0,6.0,35,-99.99,,,0.00,1-wire,2013-06-17 19:57:00,
2013-06-17 15:02:00,86.6,55.5,29.90,WNW,302,3.0,6.0,35,-99.99,,,0.00,1-wire,2013-06-17 20:02:00,
2013-06-17 15:07:00,86.5,54.5,29.89,NW,311,6.0,14.0,34,-99.99,,,0.00,1-wire,2013-06-17 20:07:00,
2013-06-17 15:12:00,86.9,55.5,29.90,NW,311,4.0,6.0,34,-99.99,,,0.00,1-wire,2013-06-17 20:12:00,
2013-06-17 15:17:00,85.9,54.1,29.90,NW,311,5.0,9.0,34,-99.99,,,0.00,1-wire,2013-06-17 20:17:00,
2013-06-17 15:22:00,87.0,57.0,29.89,NW,307,2.0,6.0,36,-99.99,,,0.00,1-wire,2013-06-17 20:22:00,
2013-06-17 15:27:00,85.8,54.3,29.89,NW,307,4.0,8.0,34,-99.99,,,0.00,1-wire,2013-06-17 20:27:00,
2013-06-17 15:32:00,86.6,56.3,29.89,NW,307,2.0,6.0,36,-99.99,,,0.00,1-wire,2013-06-17 20:32:00,
2013-06-17 15:38:00,86.4,55.1,29.89,WNW,301,6.0,9.0,35,-99.99,,,0.00,1-wire,2013-06-17 20:38:00,
2013-06-17 15:43:00,86.5,54.5,29.89,WNW,301,4.0,9.0,34,-99.99,,,0.00,1-wire,2013-06-17 20:43:00,
2013-06-17 15:48:00,86.5,54.7,29.89,WNW,301,4.0,8.0,34,-99.99,,,0.00,1-wire,2013-06-17 20:48:00,
2013-06-17 15:53:00,84.9,55.0,29.89,WNW,296,4.0,6.0,36,-99.99,,,0.00,1-wire,2013-06-17 20:53:00,
2013-06-17 15:58:00,85.8,56.5,29.89,WNW,296,4.0,6.0,37,-99.99,,,0.00,1-wire,2013-06-17 20:58:00,
2013-06-17 16:03:00,85.5,56.9,29.88,WNW,296,2.0,6.0,38,-99.99,,,0.00,1-wire,2013-06-17 21:03:00,
2013-06-17 16:08:00,84.9,54.7,29.88,NW,304,3.0,6.0,36,-99.99,,,0.00,1-wire,2013-06-17 21:08:00,
2013-06-17 16:13:00,86.0,54.9,29.88,NW,304,2.0,6.0,35,-99.99,,,0.00,1-wire,2013-06-17 21:13:00,
2013-06-17 16:19:00,85.4,55.9,29.88,NW,304,4.0,9.0,37,-99.99,,,0.00,1-wire,2013-06-17 21:19:00,
2013-06-17 16:24:00,84.9,56.0,29.88,NW,317,1.0,3.0,37,-99.99,,,0.00,1-wire,2013-06-17 21:24:00,
2013-06-17 16:29:00,83.7,55.5,29.88,NW,317,3.0,6.0,38,-99.99,,,0.00,1-wire,2013-06-17 21:29:00,
2013-06-17 16:34:00,83.8,56.7,29.88,NW,317,2.0,6.0,40,-99.99,,,0.00,1-wire,2013-06-17 21:34:00,
2013-06-17 16:40:00,81.3,54.0,29.89,NW,305,5.0,11.0,39,-99.99,,,0.00,1-wire,2013-06-17 21:40:00,
2013-06-17 16:46:00,79.4,55.7,29.89,NW,305,3.0,9.0,44,-99.99,,,0.00,1-wire,2013-06-17 21:46:00,
2013-06-17 16:51:00,79.9,55.9,29.90,NW,321,4.0,8.0,44,-99.99,,,0.00,1-wire,2013-06-17 21:51:00,
2013-06-17 16:56:00,79.7,56.5,29.89,NW,321,2.0,6.0,45,-99.99,,,0.00,1-wire,2013-06-17 21:56:00,
2013-06-17 17:01:00,79.6,56.1,29.89,NW,321,3.0,11.0,44,-99.99,,,0.00,1-wire,2013-06-17 22:01:00,
2013-06-17 17:07:00,80.1,56.6,29.89,North,3,3.0,6.0,45,-99.99,,,0.00,1-wire,2013-06-17 22:07:00,
2013-06-17 17:12:00,80.4,57.6,29.89,North,3,2.0,6.0,46,-99.99,,,0.00,1-wire,2013-06-17 22:12:00,
2013-06-17 17:17:00,80.4,57.5,29.89,North,3,3.0,8.0,46,-99.99,,,0.00,1-wire,2013-06-17 22:17:00,
2013-06-17 17:22:00,81.1,57.8,29.89,North,8,1.0,3.0,45,-99.99,,,0.00,1-wire,2013-06-17 22:22:00,
2013-06-17 17:28:00,81.3,58.4,29.89,North,8,2.0,3.0,46,-99.99,,,0.00,1-wire,2013-06-17 22:28:00,
2013-06-17 17:33:00,81.2,56.8,29.89,North,8,3.0,6.0,43,-99.99,,,0.00,1-wire,2013-06-17 22:33:00,
2013-06-17 17:38:00,81.4,56.0,29.88,North,358,4.0,6.0,42,-99.99,,,0.00,1-wire,2013-06-17 22:38:00,
2013-06-17 17:44:00,81.6,56.9,29.88,North,358,3.0,6.0,43,-99.99,,,0.00,1-wire,2013-06-17 22:44:00,
2013-06-17 17:49:00,81.8,58.0,29.88,North,358,2.0,6.0,44,-99.99,,,0.00,1-wire,2013-06-17 22:49:00,
2013-06-17 17:54:00,81.9,57.7,29.88,North,354,1.0,5.0,44,-99.99,,,0.00,1-wire,2013-06-17 22:54:00,
2013-06-17 18:00:00,81.9,57.1,29.88,North,354,1.0,3.0,43,-99.99,,,0.00,1-wire,2013-06-17 23:00:00,
2013-06-17 18:06:00,82.0,56.7,29.88,North,353,1.0,6.0,42,-99.99,,,0.00,1-wire,2013-06-17 23:06:00,
2013-06-17 18:11:00,81.6,56.7,29.88,North,353,4.0,9.0,43,-99.99,,,0.00,1-wire,2013-06-17 23:11:00,
2013-06-17 18:16:00,82.2,57.2,29.88,North,353,1.0,3.0,43,-99.99,,,0.00,1-wire,2013-06-17 23:16:00,
2013-06-17 18:21:00,81.9,57.5,29.88,NNW,343,1.0,3.0,44,-99.99,,,0.00,1-wire,2013-06-17 23:21:00,
2013-06-17 18:26:00,81.6,56.5,29.88,NNW,343,3.0,9.0,42,-99.99,,,0.00,1-wire,2013-06-17 23:26:00,
2013-06-17 18:31:00,81.8,57.7,29.88,NNW,343,2.0,6.0,44,-99.99,,,0.00,1-wire,2013-06-17 23:31:00,
2013-06-17 18:36:00,81.3,56.8,29.89,NNW,339,3.0,6.0,43,-99.99,,,0.00,1-wire,2013-06-17 23:36:00,
2013-06-17 18:41:00,81.2,56.5,29.89,NNW,339,4.0,6.0,43,-99.99,,,0.00,1-wire,2013-06-17 23:41:00,
2013-06-17 18:46:00,81.0,57.0,29.89,NNW,339,2.0,3.0,44,-99.99,,,0.00,1-wire,2013-06-17 23:46:00,
2013-06-17 18:51:00,81.0,56.8,29.88,NNW,335,2.0,3.0,44,-99.99,,,0.00,1-wire,2013-06-17 23:51:00,
2013-06-17 18:56:00,81.1,57.4,29.89,NNW,335,2.0,3.0,45,-99.99,,,0.00,1-wire,2013-06-17 23:56:00,
2013-06-17 19:01:00,80.9,58.0,29.89,NNW,335,0.0,0.0,46,-99.99,,,0.00,1-wire,2013-06-18 00:01:00,
2013-06-17 19:06:00,80.9,56.7,29.89,NNW,332,2.0,6.0,44,-99.99,,,0.00,1-wire,2013-06-18 00:06:00,
2013-06-17 19:11:00,80.6,56.3,29.89,NNW,332,1.0,3.0,43,-99.99,,,0.00,1-wire,2013-06-18 00:11:00,
2013-06-17 19:16:00,80.5,56.8,29.89,NNW,332,1.0,6.0,44,-99.99,,,0.00,1-wire,2013-06-18 00:16:00,
2013-06-17 19:21:00,80.5,56.1,29.89,NNW,332,1.0,3.0,43,-99.99,,,0.00,1-wire,2013-06-18 00:21:00,
2013-06-17 19:26:00,80.5,57.3,29.89,NNW,332,0.0,3.0,45,-99.99,,,0.00,1-wire,2013-06-18 00:26:00,
2013-06-17 19:31:00,79.7,55.8,29.89,NNW,332,3.0,6.0,44,-99.99,,,0.00,1-wire,2013-06-18 00:31:00,
2013-06-17 19:36:00,79.8,56.2,29.89,NNW,331,0.0,3.0,44,-99.99,,,0.00,1-wire,2013-06-18 00:36:00,
2013-06-17 19:41:00,79.8,57.6,29.89,NNW,331,0.0,0.0,47,-99.99,,,0.00,1-wire,2013-06-18 00:41:00,
2013-06-17 19:46:00,79.3,57.5,29.89,NNW,331,0.0,0.0,47,-99.99,,,0.00,1-wire,2013-06-18 00:46:00,
2013-06-17 19:51:00,78.7,56.2,29.90,North,2,2.0,6.0,46,-99.99,,,0.00,1-wire,2013-06-18 00:51:00,
2013-06-17 19:56:00,75.8,58.9,29.90,North,2,4.0,9.0,56,-99.99,,,0.00,1-wire,2013-06-18 00:56:00,
2013-06-17 20:01:00,74.6,59.2,29.90,North,2,1.0,4.0,59,-99.99,,,0.00,1-wire,2013-06-18 01:01:00,
2013-06-17 20:06:00,73.7,59.5,29.91,ENE,64,4.0,8.0,61,-99.99,,,0.00,1-wire,2013-06-18 01:06:00,
2013-06-17 20:11:00,72.7,58.8,29.92,ENE,64,3.0,9.0,62,-99.99,,,0.00,1-wire,2013-06-18 01:11:00,
2013-06-17 20:16:00,73.0,59.3,29.92,ENE,64,1.0,3.0,62,-99.99,,,0.00,1-wire,2013-06-18 01:16:00,
2013-06-17 20:21:00,71.7,58.2,29.92,ENE,57,3.0,9.0,63,-99.99,,,0.00,1-wire,2013-06-18 01:21:00,
2013-06-17 20:26:00,70.7,57.6,29.93,ENE,57,2.0,6.0,63,-99.99,,,0.00,1-wire,2013-06-18 01:26:00,
2013-06-17 20:31:00,70.2,57.1,29.93,ENE,57,5.0,11.0,63,-99.99,,,0.00,1-wire,2013-06-18 01:31:00,
2013-06-17 20:36:00,70.0,57.0,29.93,ENE,60,3.0,6.0,63,-99.99,,,0.00,1-wire,2013-06-18 01:36:00,
2013-06-17 20:41:00,69.4,56.8,29.94,ENE,60,3.0,11.0,64,-99.99,,,0.00,1-wire,2013-06-18 01:41:00,
2013-06-17 20:46:00,69.2,56.8,29.94,ENE,60,3.0,6.0,65,-99.99,,,0.00,1-wire,2013-06-18 01:46:00,
2013-06-17 20:51:00,69.3,56.6,29.94,ENE,66,1.0,3.0,64,-99.99,,,0.00,1-wire,2013-06-18 01:51:00,
2013-06-17 20:56:00,69.3,56.8,29.94,ENE,66,0.0,3.0,64,-99.99,,,0.00,1-wire,2013-06-18 01:56:00,
2013-06-17 21:01:00,69.4,57.0,29.94,ENE,66,0.0,0.0,65,-99.99,,,0.00,1-wire,2013-06-18 02:01:00,
2013-06-17 21:06:00,68.8,56.3,29.94,ENE,77,0.0,3.0,64,-99.99,,,0.00,1-wire,2013-06-18 02:06:00,
2013-06-17 21:11:00,68.8,56.5,29.94,ENE,77,0.0,0.0,65,-99.99,,,0.00,1-wire,2013-06-18 02:11:00,
2013-06-17 21:16:00,68.5,56.3,29.94,ENE,77,1.0,3.0,65,-99.99,,,0.00,1-wire,2013-06-18 02:16:00,
2013-06-17 21:21:00,68.8,56.1,29.94,East,82,0.0,0.0,64,-99.99,,,0.00,1-wire,2013-06-18 02:21:00,
2013-06-17 21:27:00,68.4,55.9,29.95,East,82,0.0,0.0,64,-99.99,,,0.00,1-wire,2013-06-18 02:27:00,
2013-06-17 21:33:00,68.2,56.3,29.95,East,82,0.0,0.0,66,-99.99,,,0.00,1-wire,2013-06-18 02:33:00,
2013-06-17 21:39:00,67.9,56.4,29.95,East,83,0.0,3.0,67,-99.99,,,0.00,1-wire,2013-06-18 02:39:00,
2013-06-17 21:45:00,67.9,56.2,29.96,East,83,0.0,0.0,66,-99.99,,,0.00,1-wire,2013-06-18 02:45:00,
2013-06-17 21:51:00,67.6,56.1,29.97,ESE,104,0.0,3.0,67,-99.99,,,0.00,1-wire,2013-06-18 02:51:00,
2013-06-17 21:57:00,67.6,56.1,29.96,ESE,104,1.0,6.0,67,-99.99,,,0.00,1-wire,2013-06-18 02:57:00,
2013-06-17 22:03:00,67.5,55.9,29.97,ESE,104,0.0,3.0,66,-99.99,,,0.00,1-wire,2013-06-18 03:03:00,
2013-06-17 22:09:00,67.8,56.1,29.97,East,85,0.0,0.0,66,-99.99,,,0.00,1-wire,2013-06-18 03:09:00,
2013-06-17 22:15:00,67.5,56.0,29.97,East,85,0.0,0.0,67,-99.99,,,0.00,1-wire,2013-06-18 03:15:00,
2013-06-17 22:21:00,67.2,56.1,29.97,East,84,0.0,0.0,68,-99.99,,,0.00,1-wire,2013-06-18 03:21:00,
2013-06-17 22:27:00,66.9,56.1,29.97,East,84,0.0,0.0,68,-99.99,,,0.00,1-wire,2013-06-18 03:27:00,
2013-06-17 22:33:00,66.8,56.1,29.97,East,84,0.0,3.0,68,-99.99,,,0.00,1-wire,2013-06-18 03:33:00,
2013-06-17 22:39:00,66.9,56.1,29.97,ENE,73,0.0,0.0,68,-99.99,,,0.00,1-wire,2013-06-18 03:39:00,
2013-06-17 22:45:00,66.7,56.2,29.97,ENE,73,0.0,0.0,69,-99.99,,,0.00,1-wire,2013-06-18 03:45:00,
2013-06-17 22:51:00,66.4,56.0,29.97,East,87,0.0,3.0,69,-99.99,,,0.00,1-wire,2013-06-18 03:51:00,
2013-06-17 22:57:00,66.1,56.0,29.97,East,87,0.0,0.0,70,-99.99,,,0.00,1-wire,2013-06-18 03:57:00,
2013-06-17 23:01:00,66.2,55.7,29.97,East,87,0.0,3.0,69,-99.99,,,0.00,1-wire,2013-06-18 04:01:00,
2013-06-17 23:03:00,66.0,57.0,29.97,East,87,1.0,3.0,73,-99.99,,,0.00,1-wire,2013-06-18 04:03:00,
2013-06-17 23:04:00,65.9,55.8,29.97,East,87,0.0,0.0,70,-99.99,,,0.00,1-wire,2013-06-18 04:04:00,
2013-06-17 23:07:00,65.9,55.7,29.97,ENE,64,0.0,0.0,70,-99.99,,,0.00,1-wire,2013-06-18 04:07:00,
2013-06-17 23:10:00,65.6,55.6,29.97,ENE,64,1.0,5.0,70,-99.99,,,0.00,1-wire,2013-06-18 04:10:00,
2013-06-17 23:15:00,65.9,55.9,29.97,ENE,64,0.0,0.0,70,-99.99,,,0.00,1-wire,2013-06-18 04:15:00,
2013-06-17 23:21:00,66.1,56.1,29.97,ENE,72,0.0,0.0,70,-99.99,,,0.00,1-wire,2013-06-18 04:21:00,
2013-06-17 23:27:00,66.0,56.0,29.97,ENE,72,0.0,0.0,70,-99.99,,,0.00,1-wire,2013-06-18 04:27:00,
2013-06-17 23:33:00,65.6,56.3,29.97,ENE,72,0.0,0.0,72,-99.99,,,0.00,1-wire,2013-06-18 04:33:00,
2013-06-17 23:39:00,65.5,55.7,29.97,ENE,70,0.0,3.0,71,-99.99,,,0.00,1-wire,2013-06-18 04:39:00,
2013-06-17 23:45:00,65.9,56.4,29.97,ENE,70,0.0,3.0,71,-99.99,,,0.00,1-wire,2013-06-18 04:45:00,
2013-06-17 23:51:00,65.8,56.0,29.97,ENE,72,0.0,0.0,71,-99.99,,,0.00,1-wire,2013-06-18 04:51:00,
2013-06-17 23:57:00,66.3,56.4,29.97,ENE,72,0.0,0.0,71,-99.99,,,0.00,1-wire,2013-06-18 04:57:00,